VAG791 VVNB-VVTS

Flight info

Callsign VAG791
Flight time 1h 33m
Altitude 34000
Route NAH3A NAH Q1 HATIN/K0859F360 Q1 DOVIN DOVIN5P
Aircraft A321/M-SDE3FGHIRWY/LB1

Departure

Time 2026-05-06 00:42
Airport Noi Bai International Airport (VVNB)

Arrival

Time 2026-05-06 02:15
Airport Tan Son Nhat International Airport (VVTS)
Time Latitude Longitude Altitude Speed Heading
2026-05-06 00:40 21.22029 105.79238 48 ft 38 kts 288°
2026-05-06 00:40 21.22106 105.78968 49 ft 37 kts 287°
2026-05-06 00:40 21.22180 105.78714 49 ft 29 kts 287°
2026-05-06 00:41 21.22276 105.78667 49 ft 19 kts 338°
2026-05-06 00:41 21.22371 105.78615 50 ft 19 kts 16°
2026-05-06 00:41 21.22445 105.78723 50 ft 26 kts 101°
2026-05-06 00:41 21.22335 105.79107 51 ft 88 kts 108°
2026-05-06 00:42 21.22089 105.79953 47 ft 146 kts 107°
2026-05-06 00:42 21.21759 105.81095 443 ft 157 kts 108°
2026-05-06 00:42 21.21453 105.82173 1153 ft 151 kts 109°
2026-05-06 00:42 21.21202 105.83314 1542 ft 164 kts 104°
2026-05-06 00:43 21.20939 105.84557 1899 ft 180 kts 109°
2026-05-06 00:43 21.20545 105.85916 2146 ft 202 kts 113°
2026-05-06 00:43 21.19761 105.87238 2347 ft 222 kts 143°
2026-05-06 00:43 21.18308 105.87948 2691 ft 241 kts 165°
2026-05-06 00:44 21.16668 105.88437 3403 ft 247 kts 165°
2026-05-06 00:44 21.14990 105.88931 4089 ft 253 kts 166°
2026-05-06 00:44 21.13269 105.89438 4757 ft 260 kts 166°
2026-05-06 00:44 21.11533 105.89953 5442 ft 265 kts 167°
2026-05-06 00:45 21.09740 105.90489 6080 ft 271 kts 167°
2026-05-06 00:45 21.07907 105.91040 6694 ft 276 kts 167°
2026-05-06 00:45 21.06041 105.91601 7324 ft 280 kts 168°
2026-05-06 00:45 21.04157 105.92167 7973 ft 283 kts 167°
2026-05-06 00:46 21.02248 105.92740 8597 ft 287 kts 167°
2026-05-06 00:46 21.00311 105.93322 9239 ft 290 kts 167°
2026-05-06 00:46 20.98357 105.93911 9877 ft 293 kts 167°
2026-05-06 00:46 20.96353 105.94511 10182 ft 309 kts 167°
2026-05-06 00:47 20.94207 105.95150 10303 ft 330 kts 167°
2026-05-06 00:47 20.91926 105.95829 10423 ft 350 kts 167°
2026-05-06 00:47 20.89520 105.96548 10538 ft 368 kts 167°
2026-05-06 00:47 20.86994 105.97307 10663 ft 385 kts 166°
2026-05-06 00:48 20.85265 105.97827 10738 ft 395 kts 166°
2026-05-06 00:48 20.82584 105.98635 11024 ft 404 kts 166°
2026-05-06 00:48 20.79857 105.99460 11491 ft 408 kts 166°
2026-05-06 00:48 20.77112 106.00290 11994 ft 412 kts 166°
2026-05-06 00:49 20.74344 106.01124 12497 ft 415 kts 166°
2026-05-06 00:49 20.71556 106.01964 13004 ft 418 kts 166°
2026-05-06 00:49 20.68743 106.02807 13508 ft 422 kts 166°
2026-05-06 00:49 20.65907 106.03653 13956 ft 425 kts 166°
2026-05-06 00:50 20.63049 106.04506 14388 ft 428 kts 166°
2026-05-06 00:50 20.60172 106.05364 14815 ft 431 kts 166°
2026-05-06 00:50 20.57276 106.06227 15231 ft 433 kts 166°
2026-05-06 00:50 20.54359 106.07099 15637 ft 436 kts 166°
2026-05-06 00:51 20.51430 106.07976 16029 ft 439 kts 166°
2026-05-06 00:51 20.48482 106.08858 16416 ft 441 kts 166°
2026-05-06 00:51 20.45517 106.09743 16795 ft 444 kts 166°
2026-05-06 00:51 20.42569 106.10621 17172 ft 446 kts 166°
2026-05-06 00:52 20.39575 106.11532 17534 ft 449 kts 163°
2026-05-06 00:52 20.36664 106.12783 17876 ft 454 kts 156°
2026-05-06 00:52 20.33801 106.14226 18211 ft 456 kts 156°
2026-05-06 00:52 20.30917 106.15678 18505 ft 459 kts 156°
2026-05-06 00:53 20.28022 106.17130 18784 ft 461 kts 156°
2026-05-06 00:53 20.25106 106.18587 19073 ft 464 kts 156°
2026-05-06 00:53 20.22183 106.20046 19348 ft 466 kts 156°
2026-05-06 00:53 20.19242 106.21516 19627 ft 468 kts 156°
2026-05-06 00:54 20.16285 106.22995 19889 ft 470 kts 156°
2026-05-06 00:54 20.13312 106.24479 20154 ft 472 kts 156°
2026-05-06 00:54 20.10330 106.25968 20409 ft 475 kts 156°
2026-05-06 00:54 20.07335 106.27462 20669 ft 477 kts 156°
2026-05-06 00:55 20.04326 106.28960 20918 ft 479 kts 156°
2026-05-06 00:55 20.01304 106.30463 21156 ft 481 kts 156°
2026-05-06 00:55 19.98265 106.31973 21400 ft 483 kts 156°
2026-05-06 00:55 19.95216 106.33486 21637 ft 485 kts 156°
2026-05-06 00:56 19.92155 106.35006 21871 ft 487 kts 156°
2026-05-06 00:56 19.89080 106.36540 22121 ft 488 kts 156°
2026-05-06 00:56 19.86001 106.38078 22369 ft 490 kts 156°
2026-05-06 00:56 19.82941 106.39603 22606 ft 492 kts 156°
2026-05-06 00:57 19.79835 106.41144 22850 ft 494 kts 156°
2026-05-06 00:57 19.76712 106.42693 23090 ft 496 kts 156°
2026-05-06 00:57 19.73583 106.44245 23322 ft 498 kts 156°
2026-05-06 00:57 19.70442 106.45804 23552 ft 500 kts 156°
2026-05-06 00:58 19.67292 106.47371 23753 ft 501 kts 156°
2026-05-06 00:58 19.64132 106.48943 23984 ft 501 kts 156°
2026-05-06 00:58 19.60980 106.50505 24261 ft 500 kts 156°
2026-05-06 00:58 19.57830 106.52061 24540 ft 499 kts 156°
2026-05-06 00:59 19.54678 106.53619 24809 ft 499 kts 156°
2026-05-06 00:59 19.51528 106.55176 25089 ft 499 kts 156°
2026-05-06 00:59 19.48423 106.56711 25367 ft 498 kts 156°
2026-05-06 00:59 19.45282 106.58260 25651 ft 498 kts 156°
2026-05-06 01:00 19.42138 106.59814 25946 ft 498 kts 156°
2026-05-06 01:00 19.39004 106.61368 26238 ft 498 kts 156°
2026-05-06 01:00 19.35865 106.62922 26529 ft 497 kts 156°
2026-05-06 01:00 19.32733 106.64470 26838 ft 496 kts 156°
2026-05-06 01:01 19.29607 106.66014 27153 ft 496 kts 156°
2026-05-06 01:01 19.26485 106.67555 27467 ft 495 kts 156°
2026-05-06 01:01 19.23359 106.69094 27777 ft 495 kts 156°
2026-05-06 01:01 19.20235 106.70618 28089 ft 494 kts 157°
2026-05-06 01:02 19.17101 106.72106 28406 ft 494 kts 158°
2026-05-06 01:02 19.13954 106.73572 28718 ft 493 kts 158°
2026-05-06 01:02 19.10809 106.75022 29024 ft 493 kts 158°
2026-05-06 01:02 19.07664 106.76473 29270 ft 495 kts 158°
2026-05-06 01:03 19.04497 106.77940 29404 ft 498 kts 158°
2026-05-06 01:03 19.01319 106.79421 29526 ft 501 kts 158°
2026-05-06 01:03 18.98121 106.80915 29660 ft 503 kts 158°
2026-05-06 01:03 18.94911 106.82421 29802 ft 505 kts 158°
2026-05-06 01:04 18.91737 106.83910 29980 ft 505 kts 158°
2026-05-06 01:04 18.88524 106.85417 30159 ft 505 kts 158°
2026-05-06 01:04 18.85312 106.86920 30340 ft 505 kts 158°
2026-05-06 01:04 18.82100 106.88418 30539 ft 505 kts 158°
2026-05-06 01:05 18.78887 106.89917 30745 ft 504 kts 158°
2026-05-06 01:05 18.75681 106.91409 30937 ft 503 kts 158°
2026-05-06 01:05 18.72479 106.92896 31137 ft 503 kts 158°
2026-05-06 01:05 18.69276 106.94386 31341 ft 502 kts 158°
2026-05-06 01:06 18.66082 106.95874 31537 ft 502 kts 158°
2026-05-06 01:06 18.62882 106.97366 31745 ft 501 kts 158°
2026-05-06 01:06 18.59694 106.98852 31940 ft 501 kts 158°
2026-05-06 01:06 18.56505 107.00337 32147 ft 500 kts 158°
2026-05-06 01:07 18.53322 107.01815 32349 ft 500 kts 158°
2026-05-06 01:07 18.50141 107.03288 32553 ft 499 kts 158°
2026-05-06 01:07 18.46958 107.04761 32761 ft 499 kts 158°
2026-05-06 01:07 18.43820 107.06215 32956 ft 498 kts 158°
2026-05-06 01:08 18.40650 107.07687 33157 ft 498 kts 158°
2026-05-06 01:08 18.37478 107.09162 33351 ft 498 kts 158°
2026-05-06 01:08 18.34315 107.10634 33566 ft 497 kts 158°
2026-05-06 01:08 18.31155 107.12105 33755 ft 497 kts 158°
2026-05-06 01:09 18.27989 107.13578 33904 ft 497 kts 158°
2026-05-06 01:09 18.21660 107.16519 33931 ft 497 kts 158°
2026-05-06 01:10 18.15337 107.19450 33934 ft 497 kts 158°
2026-05-06 01:10 18.09037 107.22361 33934 ft 497 kts 158°
2026-05-06 01:11 18.02718 107.25300 33935 ft 496 kts 158°
2026-05-06 01:11 17.96421 107.28303 33933 ft 497 kts 158°
2026-05-06 01:12 17.90132 107.31315 33931 ft 494 kts 158°
2026-05-06 01:12 17.83860 107.34298 33933 ft 496 kts 158°
2026-05-06 01:13 17.77556 107.37290 33935 ft 497 kts 158°
2026-05-06 01:13 17.71242 107.40286 33932 ft 497 kts 158°
2026-05-06 01:14 17.61823 107.44737 33932 ft 497 kts 158°
2026-05-06 01:14 17.55511 107.47714 33943 ft 497 kts 158°
2026-05-06 01:15 17.49205 107.50695 33946 ft 498 kts 158°
2026-05-06 01:15 17.42879 107.53685 33950 ft 498 kts 158°
2026-05-06 01:16 17.36554 107.56666 33956 ft 498 kts 158°
2026-05-06 01:16 17.30277 107.59633 33958 ft 498 kts 158°
2026-05-06 01:17 17.23958 107.62612 33959 ft 497 kts 158°
2026-05-06 01:17 17.17651 107.65575 33962 ft 496 kts 158°
2026-05-06 01:18 17.11358 107.68540 33964 ft 496 kts 158°
2026-05-06 01:18 17.05089 107.71566 33959 ft 495 kts 158°
2026-05-06 01:19 16.98847 107.74626 33957 ft 495 kts 158°
2026-05-06 01:19 16.92601 107.77665 33952 ft 495 kts 158°
2026-05-06 01:20 16.86348 107.80683 33957 ft 495 kts 158°
2026-05-06 01:20 16.80099 107.83707 33958 ft 495 kts 158°
2026-05-06 01:21 16.73854 107.86734 33957 ft 495 kts 158°
2026-05-06 01:21 16.67646 107.89746 33959 ft 495 kts 158°
2026-05-06 01:22 16.61402 107.92769 33958 ft 494 kts 158°
2026-05-06 01:22 16.55162 107.95784 33954 ft 494 kts 158°
2026-05-06 01:23 16.48922 107.98796 33959 ft 495 kts 158°
2026-05-06 01:23 16.42671 108.01815 33959 ft 495 kts 158°
2026-05-06 01:24 16.36423 108.04825 33958 ft 495 kts 158°
2026-05-06 01:24 16.30180 108.07830 33959 ft 494 kts 158°
2026-05-06 01:25 16.23935 108.10847 33955 ft 494 kts 158°
2026-05-06 01:25 16.17729 108.13833 33960 ft 494 kts 158°
2026-05-06 01:26 16.11482 108.16832 33967 ft 494 kts 158°
2026-05-06 01:26 16.05062 108.19258 33966 ft 488 kts 172°
2026-05-06 01:27 15.98339 108.19678 33967 ft 483 kts 184°
2026-05-06 01:27 15.91616 108.19518 33965 ft 483 kts 184°
2026-05-06 01:28 15.84927 108.19376 33962 ft 483 kts 184°
2026-05-06 01:28 15.78202 108.19237 33961 ft 483 kts 184°
2026-05-06 01:29 15.71471 108.19095 33961 ft 483 kts 184°
2026-05-06 01:29 15.64745 108.18943 33962 ft 483 kts 184°
2026-05-06 01:30 15.58025 108.18794 33963 ft 483 kts 184°
2026-05-06 01:30 15.51303 108.18651 33968 ft 483 kts 183°
2026-05-06 01:31 15.44579 108.18507 33968 ft 483 kts 183°
2026-05-06 01:31 15.37853 108.18361 33977 ft 483 kts 183°
2026-05-06 01:32 15.31130 108.18218 33978 ft 483 kts 183°
2026-05-06 01:32 15.24401 108.18079 33992 ft 483 kts 183°
2026-05-06 01:33 15.17682 108.17942 33990 ft 483 kts 183°
2026-05-06 01:33 15.10965 108.17795 34003 ft 483 kts 183°
2026-05-06 01:34 15.04295 108.17642 34008 ft 483 kts 183°
2026-05-06 01:34 14.97585 108.17486 34010 ft 482 kts 183°
2026-05-06 01:35 14.90867 108.17343 34009 ft 482 kts 183°
2026-05-06 01:35 14.84158 108.17203 34012 ft 481 kts 183°
2026-05-06 01:36 14.77465 108.17053 34012 ft 481 kts 183°
2026-05-06 01:36 14.70808 108.16899 34014 ft 481 kts 183°
2026-05-06 01:37 14.64121 108.16752 34014 ft 481 kts 183°
2026-05-06 01:37 14.57430 108.16607 34011 ft 480 kts 183°
2026-05-06 01:38 14.50747 108.16459 34009 ft 480 kts 183°
2026-05-06 01:38 14.44060 108.16309 34008 ft 480 kts 183°
2026-05-06 01:39 14.38507 108.16188 34008 ft 480 kts 183°
2026-05-06 01:39 14.31819 108.16040 34009 ft 481 kts 183°
2026-05-06 01:40 14.25139 108.15894 33999 ft 481 kts 183°
2026-05-06 01:40 14.18440 108.15755 33995 ft 480 kts 183°
2026-05-06 01:41 14.11749 108.15610 33999 ft 480 kts 183°
2026-05-06 01:41 14.05067 108.15469 33998 ft 480 kts 183°
2026-05-06 01:42 13.98394 108.15332 33995 ft 480 kts 183°
2026-05-06 01:42 13.91753 108.15184 33987 ft 479 kts 183°
2026-05-06 01:43 13.85087 108.15038 33990 ft 479 kts 183°
2026-05-06 01:43 13.78417 108.14891 33983 ft 479 kts 183°
2026-05-06 01:44 13.71748 108.14740 33984 ft 479 kts 183°
2026-05-06 01:44 13.65130 108.14589 33982 ft 478 kts 183°
2026-05-06 01:45 13.58472 108.14447 33982 ft 478 kts 183°
2026-05-06 01:45 13.51819 108.14306 33970 ft 478 kts 182°
2026-05-06 01:46 13.45155 108.14159 33979 ft 478 kts 183°
2026-05-06 01:46 13.38498 108.14013 33974 ft 478 kts 182°
2026-05-06 01:47 13.31851 108.13866 33967 ft 477 kts 182°
2026-05-06 01:47 13.25244 108.13713 33973 ft 477 kts 182°
2026-05-06 01:48 13.18603 108.13553 33977 ft 477 kts 182°
2026-05-06 01:48 13.11951 108.13388 33968 ft 478 kts 182°
2026-05-06 01:49 13.05289 108.13225 33966 ft 479 kts 182°
2026-05-06 01:49 12.98629 108.13067 33974 ft 479 kts 182°
2026-05-06 01:50 12.91960 108.12905 33971 ft 479 kts 182°
2026-05-06 01:50 12.85286 108.12744 33974 ft 479 kts 182°
2026-05-06 01:51 12.78848 108.12588 33982 ft 479 kts 182°
2026-05-06 01:51 12.72225 108.12433 33985 ft 478 kts 183°
2026-05-06 01:52 12.65643 108.11637 33985 ft 475 kts 197°
2026-05-06 01:52 12.59530 108.09116 33988 ft 473 kts 204°
2026-05-06 01:53 12.53494 108.06413 33989 ft 474 kts 204°
2026-05-06 01:53 12.47452 108.03720 33987 ft 474 kts 204°
2026-05-06 01:54 12.41447 108.01040 33982 ft 474 kts 204°
2026-05-06 01:54 12.35396 107.98342 33990 ft 474 kts 204°
2026-05-06 01:55 12.29343 107.95661 34001 ft 474 kts 204°
2026-05-06 01:55 12.23287 107.92969 34003 ft 474 kts 204°
2026-05-06 01:56 12.17223 107.90260 34001 ft 475 kts 204°
2026-05-06 01:56 12.11173 107.87567 34009 ft 475 kts 203°
2026-05-06 01:57 12.05118 107.84872 34006 ft 475 kts 203°
2026-05-06 01:57 11.99058 107.82182 34006 ft 474 kts 203°
2026-05-06 01:58 11.93007 107.79486 34004 ft 474 kts 203°
2026-05-06 01:58 11.86994 107.76817 33998 ft 474 kts 203°
2026-05-06 01:59 11.83974 107.75475 33744 ft 475 kts 203°
2026-05-06 01:59 11.80916 107.74116 32501 ft 484 kts 203°
2026-05-06 01:59 11.77805 107.72733 31374 ft 491 kts 202°
2026-05-06 01:59 11.74674 107.71343 30662 ft 488 kts 202°
2026-05-06 02:00 11.71567 107.69965 29852 ft 487 kts 202°
2026-05-06 02:00 11.68452 107.68586 28839 ft 489 kts 202°
2026-05-06 02:00 11.65324 107.67204 27794 ft 491 kts 202°
2026-05-06 02:00 11.62184 107.65814 26742 ft 493 kts 202°
2026-05-06 02:01 11.59022 107.64414 25678 ft 496 kts 203°
2026-05-06 02:01 11.55852 107.63012 24608 ft 498 kts 203°
2026-05-06 02:01 11.52670 107.61604 23775 ft 496 kts 203°
2026-05-06 02:01 11.49523 107.60207 23012 ft 490 kts 203°
2026-05-06 02:02 11.46408 107.58824 22178 ft 486 kts 203°
2026-05-06 02:02 11.43325 107.57457 21358 ft 481 kts 203°
2026-05-06 02:02 11.40273 107.56105 20576 ft 476 kts 203°
2026-05-06 02:02 11.37244 107.54767 19818 ft 471 kts 203°
2026-05-06 02:03 11.34252 107.53446 19078 ft 467 kts 202°
2026-05-06 02:03 11.31327 107.52152 18364 ft 462 kts 202°
2026-05-06 02:03 11.28391 107.50854 17550 ft 458 kts 202°
2026-05-06 02:03 11.25480 107.49569 16765 ft 453 kts 202°
2026-05-06 02:04 11.22604 107.48303 16004 ft 448 kts 202°
2026-05-06 02:04 11.19759 107.47048 15258 ft 443 kts 202°
2026-05-06 02:04 11.16940 107.45803 14563 ft 439 kts 202°
2026-05-06 02:04 11.14156 107.44574 13915 ft 435 kts 202°
2026-05-06 02:05 11.11395 107.43353 13241 ft 430 kts 201°
2026-05-06 02:05 11.08663 107.42143 12587 ft 426 kts 202°
2026-05-06 02:05 11.05956 107.40946 11943 ft 422 kts 202°
2026-05-06 02:05 11.03364 107.39582 11315 ft 420 kts 213°
2026-05-06 02:06 11.01201 107.37604 11103 ft 421 kts 229°
2026-05-06 02:06 10.99618 107.35089 10932 ft 423 kts 245°
2026-05-06 02:06 10.98792 107.32224 10751 ft 423 kts 259°
2026-05-06 02:06 10.98247 107.29275 10562 ft 423 kts 259°
2026-05-06 02:07 10.97720 107.26336 10379 ft 422 kts 259°
2026-05-06 02:07 10.97198 107.23407 10200 ft 421 kts 259°
2026-05-06 02:07 10.96673 107.20481 10022 ft 420 kts 259°
2026-05-06 02:07 10.96151 107.17601 9759 ft 419 kts 259°
2026-05-06 02:08 10.95612 107.14652 9004 ft 417 kts 259°
2026-05-06 02:08 10.95085 107.11781 8412 ft 410 kts 259°
2026-05-06 02:08 10.94569 107.08982 7912 ft 406 kts 259°
2026-05-06 02:08 10.94048 107.06171 7324 ft 402 kts 259°
2026-05-06 02:09 10.93539 107.03417 7011 ft 387 kts 259°
2026-05-06 02:09 10.93054 107.00792 6880 ft 368 kts 259°
2026-05-06 02:09 10.92590 106.98273 6562 ft 357 kts 259°
2026-05-06 02:09 10.92139 106.95827 6236 ft 347 kts 259°
2026-05-06 02:10 10.91697 106.93436 5825 ft 341 kts 258°
2026-05-06 02:10 10.91262 106.91087 5340 ft 331 kts 258°
2026-05-06 02:10 10.90743 106.88879 4700 ft 317 kts 255°
2026-05-06 02:10 10.90167 106.86701 4040 ft 313 kts 251°
2026-05-06 02:11 10.89447 106.84695 3639 ft 292 kts 248°
2026-05-06 02:11 10.88720 106.82838 3278 ft 274 kts 248°
2026-05-06 02:11 10.88051 106.81083 2937 ft 257 kts 249°
2026-05-06 02:11 10.87443 106.79468 2643 ft 232 kts 249°
2026-05-06 02:12 10.86882 106.77977 2361 ft 216 kts 249°
2026-05-06 02:12 10.86378 106.76638 2095 ft 190 kts 248°
2026-05-06 02:12 10.85943 106.75484 1874 ft 166 kts 248°
2026-05-06 02:12 10.85545 106.74429 1651 ft 156 kts 249°
2026-05-06 02:13 10.85160 106.73410 1455 ft 153 kts 248°
2026-05-06 02:13 10.84777 106.72394 1257 ft 154 kts 248°
2026-05-06 02:13 10.84391 106.71371 1061 ft 154 kts 248°
2026-05-06 02:13 10.84010 106.70361 884 ft 153 kts 249°
2026-05-06 02:14 10.83629 106.69350 681 ft 155 kts 250°
2026-05-06 02:14 10.83245 106.68328 514 ft 154 kts 249°
2026-05-06 02:14 10.82857 106.67318 269 ft 154 kts 250°
2026-05-06 02:14 10.82480 106.66311 67 ft 152 kts 250°
2026-05-06 02:15 10.82131 106.65385 37 ft 123 kts 249°
2026-05-06 02:15 10.81889 106.64741 34 ft 74 kts 249°
2026-05-06 02:15 10.81744 106.64430 36 ft 35 kts 227°
2026-05-06 02:15 10.81621 106.64315 35 ft 11 kts 219°
2026-05-06 02:16 10.81607 106.64303 34 ft 1 kts 219°
2026-05-06 02:16 10.81602 106.64300 35 ft 0 kts 210°
2026-05-06 02:16 10.81592 106.64295 35 ft 7 kts 203°
2026-05-06 02:16 10.81494 106.64310 37 ft 21 kts 159°
2026-05-06 02:17 10.81326 106.64374 37 ft 27 kts 159°
2026-05-06 02:17 10.81252 106.64463 38 ft 16 kts 72°
2026-05-06 02:17 10.81300 106.64587 40 ft 20 kts 68°
2026-05-06 02:17 10.81357 106.64734 41 ft 21 kts 69°
2026-05-06 02:18 10.81410 106.64879 43 ft 21 kts 69°
2026-05-06 02:18 10.81428 106.65005 39 ft 16 kts 123°
2026-05-06 02:18 10.81381 106.65095 38 ft 11 kts 74°
2026-05-06 02:18 10.81365 106.65164 37 ft 13 kts 151°
2026-05-06 02:19 10.81293 106.65208 37 ft 11 kts 102°
2026-05-06 02:19 10.81262 106.65266 37 ft 8 kts 161°
2026-05-06 02:19 10.81244 106.65273 37 ft 0 kts 160°